{"data":{"norad_id":54871,"intl_designator":"2022-177BD","name":"STARLINK-5397","alt_names":[],"object_type":"PAYLOAD","status":"ACTIVE","operator":null,"country":"US","launch_date":"2022-12-28","launch_site_code":"AFETR","launch_vehicle":null,"mission":null,"orbit_class":"UNKNOWN","rcs_meters":null,"size_class":null,"mass_kg":null,"dimensions":null,"purposes":["comms"],"wikipedia_slug":null,"has_3d_model":false,"image_url":null,"decayed_at":null,"tle_current":{"epoch":"2026-09-20T22:01:45.934464Z","epoch_age_seconds":56549,"freshness":"FRESH","line1":"1 54871U 22177BD  26263.91789276 -.00000327  00000+0 -23589-5 0  9997","line2":"2 54871  43.0025  99.4225 0001338 266.9949  93.0750 15.27574757206947","mean_motion":15.27574757,"eccentricity":0.0001338,"inclination_deg":43.0025,"raan_deg":99.4225,"arg_perigee_deg":266.9949,"mean_anomaly_deg":93.075,"bstar":-2.3589e-6,"rev_number":20694,"period_min":94.267072259561,"perigee_km":482.14676671248,"apogee_km":483.98282431296,"semimajor_km":6861.2017955127,"source":"CELESTRAK","updated_at":"2026-09-21T09:00:33.163006Z"}}}